Regional Weather Roundup
Issued by NWS

Home | Current Version | Previous Version | Graphics & Text | Print | Product List | Glossary On
Versions: 1 2 3 4 5 6 7 8 9 10 11 12 13 14 15 16 17 18 19 20 21 22 23 24 25 26 27 28 29 30 31 32 33 34 35 36 37 38 39 40 41 42 43 44 45 46 47 48 49 50
000
ASUS45 KTFX 140510
RWRMT
MONTANA REGIONAL WEATHER ROUNDUP
NATIONAL WEATHER SERVICE GREAT FALLS MT
1000 PM MST SAT FEB 13 2016

NOTE: "FAIR" INDICATES FEW OR NO CLOUDS BELOW 12000 FEET WITH NO
SIGNIFICANT WEATHER AND/OR OBSTRUCTIONS TO VISIBILITY.

MTZ001>007-043-140600-
WEST OF THE DIVIDE

CITY           SKY/WX    TMP DP  RH WIND       PRES   REMARKS
KALISPELL      CLOUDY    38  27  64 S7        30.04F
MISSOULA       CLOUDY    39  26  59 W7        30.10F
BUTTE          CLOUDY    33  16  49 SW10      30.06F WCI  25
MULLAN PASS    LGT SNOW  24  23  96 SW8       29.99F VSB 1   WCI  15
ANACONDA         N/A     36  18  48 S5        30.05F
DEER LODGE       N/A     34  21  60 CALM      30.05F
HAMILTON         N/A     39  27  60 SE12      30.09F WCI  32
PLAINS           N/A     39  30  70 CALM      30.09F
THOMPSON FALLS   N/A     37  31  79 SW2       30.13F
$$

MTZ008-052>055-140600-
SOUTHWEST MONTANA

CITY           SKY/WX    TMP DP  RH WIND       PRES   REMARKS
BOZEMAN        CLOUDY    34  21  59 VRB3      30.05F
DILLON         CLOUDY    34  19  54 SW10      30.07F WCI  26
ENNIS          CLOUDY    34  18  51 S13       30.14F WCI  25
TWIN BRIDGES     N/A     36  18  48 SE13      30.06F WCI  27
$$

MTZ009-010-012-014-046-048-049-054-140600-
EAST SLOPES AND CENTRAL MONTANA

CITY           SKY/WX    TMP DP  RH WIND       PRES   REMARKS
CUT BANK       CLOUDY    35  23  61 SW7       29.90F WCI  29
GREAT FALLS    CLOUDY    38  21  50 SW15      29.95F WCI  29
MALMSTROM AFB  CLOUDY    39  22  50 SW21      29.94F WCI  29
HELENA         CLOUDY    39  18  42 W7        30.03F
CHOTEAU          N/A     39  18  41 W12       29.93F WCI  32
CONRAD           N/A     33  25  73 S3        29.94F
$$

MTZ011-013-016-021-045-047-050-051-140600-
NORTH CENTRAL MONTANA

CITY           SKY/WX    TMP DP  RH WIND       PRES   REMARKS
HAVRE          PTCLDY    32  25  75 W5        29.91F
LEWISTOWN      CLEAR     32  21  64 SW8       29.95F WCI  25
N BAR RANCH      N/A     34  18  51 W15       29.95F WCI  24
CHINOOK          N/A     34  27  75 W7        29.90F WCI  28
$$

MTZ017>020-022>027-061-062-140600-
NORTHEAST MONTANA

CITY           SKY/WX    TMP DP  RH WIND       PRES   REMARKS
GLASGOW        CLEAR     31  27  85 CALM      29.86F
JORDAN           N/A     33  30  88 W7        29.90F WCI  27
SIDNEY         CLOUDY    34  28  80 NW10G18   29.85R WCI  26
WOLF POINT     CLEAR     36  31  82 W8        29.86F WCI  30
MALTA            N/A    N/A N/A N/A MISG      29.86
PLENTYWOOD       N/A     27  23  86 NW16      29.78F WCI  14
POPLAR           N/A     36  30  80 W12       29.85F WCI  27
SCOBEY           N/A     32  21  64 W16       29.80F WCI  21
$$

MTZ028>42-056>058-140600-
SOUTHCENTRAL AND SOUTHEAST MONTANA

CITY           SKY/WX    TMP DP  RH WIND       PRES   REMARKS
BAKER          CLOUDY    36  31  82 W20G28    29.85F WCI  25
BILLINGS       PTCLDY    36  18  48 SW9       29.99F WCI  29
LIVINGSTON     CLOUDY    37  18  46 W23G29    29.99F WCI  26
MILES CITY     CLEAR     36  30  79 W9        29.93R WCI  29
EKALAKA          N/A     33  28  82 W14       29.87  WCI  23
FORSYTH          N/A     39  28  65 W9        29.95F
LAUREL           N/A     40  17  39 W12       29.98F
ROUNDUP          N/A     39  18  43 W16       29.88F WCI  30
$$

REGIONAL REPORTS...DAKOTAS

CITY           SKY/WX    TMP DP  RH WIND       PRES   REMARKS
WILLISTON      CLOUDY    29  24  82 NW16      29.82R WCI  17
MINOT          LGT SNOW  18  12  77 SE8       29.79F VSB 3/4 WCI   8
DICKINSON      CLOUDY    33  30  88 NW23G31   29.75S WCI  21
BEACH          CLOUDY    36  36 100 NW28G39   29.85R WCI  23
CROSBY         CLOUDY    27  27 100 NW14      29.79S FOG     WCI  15
TIOGA          CLOUDY    21  21 100 W7        29.81S FOG     WCI  13
BISMARCK       CLOUDY    19  13  77 SE9       29.85F WCI   8
GRAND FORKS    FLURRIES  15   3  59 S18G28    30.06F WCI  -2
FARGO          CLOUDY    13   1  59 S23G30    30.10F WCI  -6
BUFFALO SD       N/A     38  33  82 NW25G33   29.78R WCI  27
RAPID CITY     CLOUDY    39  30  70 NW25G33   29.88R WCI  28
$$

REGIONAL REPORTS...WYOMING/IDAHO/WASHINGTON

CITY           SKY/WX    TMP DP  RH WIND       PRES   REMARKS
GILLETTE       PTCLDY    31  28  89 NW13      30.00R WCI  21
SHERIDAN       CLEAR     37  18  44 W6        30.02F
BUFFALO WY     CLEAR     38  15  39 NW15G25   30.02F WCI  29
CODY           CLOUDY    37  14  38 W16G28    30.05F WCI  28
YELLOWSTONE LA   N/A     23  17  78 VRB3G18   30.13F
IDAHO FALLS    CLOUDY    34  27  75 SW13      30.22S WCI  25
SALMON         CLOUDY    32  27  80 N3        30.13F
BOISE          CLOUDY    44  29  55 SE10      30.23F
SPOKANE        LGT RAIN  36  34  92 S13       30.10F WCI  27
$$

REGIONAL REPORTS...ALBERTA

CITY           SKY/WX    TMP DP  RH WIND       PRES   REMARKS
EDMONTON       PTCLDY    34  25  69 SW7       29.68F WCI  28
CALGARY        MOCLDY    37  19  48 SW2       29.74F
LETHBRIDGE     CLOUDY    37  25  60 SW16      29.83F WCI  28
MEDICINE HAT   CLEAR     28  25  86 SW6       29.83F WCI  22
WATERTON GATE    N/A     34  25  69 SW16G28     N/A  WCI  23
CARDSTON         N/A     36  25  64 SW6         N/A  WCI  31
MILK RIVER       N/A     36  25  64 W17G24      N/A  WCI  25
ONEFOUR          N/A     34  25  69 W3          N/A
$$

REGIONAL REPORTS...SASKATCHEWAN

CITY           SKY/WX    TMP DP  RH WIND       PRES   REMARKS
SWIFT CURRENT  CLEAR     27  25  93 W14G21    29.78F WCI  15
REGINA         FLURRIES  21  19  93 W13       29.78R WCI   9
SASKATOON      MOCLDY    21  21 100 SW8       29.75F WCI  12
CYPRESS HILLS    N/A     27  25  93 W5          N/A
VAL MARIE        N/A     30  27  86 W12         N/A  WCI  21
ROCKGLEN         N/A     30  30 100 NW15G24     N/A  WCI  19
ASSINIBOIA       N/A     32  27  80 SW12        N/A  WCI  23
$$



USA.gov is the U.S. government's official web portal to all federal, state and local government web resources and services.